Powrót do katalogu

THOR ABLESTAR DEB

AktywnyLEO
NORAD 3744·DEBRIS·🇺🇸 United States

Wystrzelony Jun 29, 1961 z Cape Canaveral Space Force Station

Loading…

Następne Przeloty (najbliższe 24 godziny)

TLE

ŚwieżeSource: Space-Track

Epoka: Sep 14, 2026, 09:47 UTC

1 03744U 61015JC  26257.40768236  .00001870  00000-0  12045-2 0  9999
2 03744  66.9737 252.8726 0115897  39.4639 321.4816 14.01922908893039

Śledź THOR ABLESTAR DEB w czasie rzeczywistym z AllMySat

Download on the App Store